Regional Weather Roundup
Issued by NWS Northern Indiana

Home | Current Version | Previous Version | Graphics & Text | Print | Product List | Glossary On
Versions: 1 2 3 4 5 6 7 8 9 10 11 12 13 14 15 16 17 18 19 20 21 22 23 24 25 26 27 28 29 30 31 32 33 34 35 36 37 38 39 40 41 42 43 44 45 46 47 48 49 50
000
ASUS43 KIWX 090510
RWRIWX

KIWX WEATHER ROUNDUP
NATIONAL WEATHER SERVICE NORTHERN INDIANA
1200 AM EST TUE FEB 09 2016

NOTE: "FAIR" INDICATES FEW OR NO CLOUDS BELOW 12,000 FEET WITH NO
SIGNIFICANT WEATHER AND/OR OBSTRUCTIONS TO VISIBILITY.

* THESE STATIONS ARE NOT UNDER NWS QUALITY CONTROL. THEY ALSO MAY NOT
  REPORT WEATHER SUCH AS PRECIPITATION OR FOG.

INZ001>027-090600-
NORTHERN INDIANA

CITY           SKY/WX    TMP DP  RH WIND       PRES   REMARKS
GARY*          FLURRIES  27  19  72 W16       29.74S WCI  15
VALPARAISO     LGT SNOW  26  22  84 W12       29.72S WCI  16
MICHIGAN CITY* FLURRIES  28  23  80 NW9       29.71F WCI  20
LAPORTE*       CLOUDY    28  26  89 W9        29.70F WCI  20
KNOX*          CLOUDY    27  23  86 W10       29.70F WCI  17
SOUTH BEND     CLOUDY    26  24  92 W10       29.68F WCI  16
GOSHEN         LGT SNOW  27  24  89 W12       29.66S FOG     WCI  17
MONTICELLO*    CLOUDY    25  18  74 W10       29.73S WCI  14
LOGANSPORT*    CLOUDY    25  19  80 W9        29.73S WCI  15
ROCHESTER*     LGT SNOW  28  21  74 W9        29.70S WCI  20
WARSAW*        LGT SNOW  27  23  86 W9        29.67F WCI  17
ANGOLA*        CLOUDY    28  25  86 W8        29.61F WCI  20
FORT WAYNE     LGT SNOW  28  23  81 W13       29.67S WCI  17
HUNTINGTON*    LGT SNOW  24  20  83 W10G17    29.68S WCI  14
PERU/GRISSOM   CLOUDY    25  21  86 W14       29.69S WCI  13
MARION*        LGT SNOW  24  17  73 W15       29.70F WCI  11

$$
INZ028>050-090600-
CENTRAL INDIANA

CITY           SKY/WX    TMP DP  RH WIND       PRES   REMARKS
LAFAYETTE      CLOUDY    22  18  85 W14       29.76S WCI   9
KOKOMO*        CLOUDY    25  19  80 W16       29.71S WCI  12
MUNCIE*        LGT SNOW  25  21  85 W13       29.69F FOG     WCI  14
INDIANAPOLIS   FLURRIES  22  16  78 W16       29.75S WCI   8

$$
MIZ043>046-050>051-056>058-064>065-071>073-077>080-090600-
SOUTHWEST LOWER MICHIGAN

CITY           SKY/WX    TMP DP  RH WIND       PRES   REMARKS
BATTLE CREEK   FLURRIES  30  27  88 W9        29.60F WCI  22
BENTON HARBOR  LGT SNOW  30  27  88 W16G26    29.66F FOG     WCI  19
COLDWATER*     FLURRIES  29  28  97 W10       29.61S WCI  19
HILLSDALE*     CLOUDY    29  27  94 W10       29.58F WCI  19
HOLLAND        CLOUDY    33  31  92 CALM      29.61S
GRAND RAPIDS   CLOUDY    33  31  92 NW6       29.60S FOG     WCI  28
KALAMAZOO      CLOUDY    30  26  85 W9        29.61F WCI  22
STURGIS*       LGT SNOW  28  25  91 W9G16     29.62S WCI  19
THREE RIVERS*  LGT SNOW  29  27  91 W9        29.63F WCI  21

$$
OHZ001>008-015>018-024>025-090600-
NORTHWEST OHIO

CITY           SKY/WX    TMP DP  RH WIND       PRES   REMARKS
DEFIANCE       CLOUDY    32  25  75 W8        29.63F WCI  25
FINDLAY        CLOUDY    32  27  81 W13       29.61F WCI  22
TOLEDO EXPRESS CLOUDY    32  27  81 W12       29.60F WCI  23
TOLEDO METCALF CLOUDY    33  27  78 W13       29.61F WCI  24
LIMA           CLOUDY    28  25  88 W16       29.63F WCI  16

$$
AND FOR LAKE MICHIGAN COASTAL AND OPEN LAKE BUOY OBSERVATIONS

STATION/POSITION TEMP    WIND        PRES    VSBY  WAVE
                 AIR SEA DIR/SP/G                  HT/PER
                 (F)     (DEG/KT/KT) (MB)    (MI)  (FT/S)
CALUMET HARBOR    25     270/  6/ 14 1006.3F
MICHIGAN CITY     27     280/ 20/ 21   N/A
BURNS HARBOR      27     290/ 14/ 18 1006.8F
SAINT JOSEPH      30     270/ 14/ 19 1005.4R

$$
&&



USA.gov is the U.S. government's official web portal to all federal, state and local government web resources and services.